User: anonymous   Login
Location: Unspecified
(0.0000°N, 0.0000°E)
Time: 12:47:15
(UTC+00:00)
Language:

Intelsat V F2 - Orbit

View from above orbital plane
View from above orbital plane
View from above satellite
View from above satellite

Ground track
Ground track

The orbit data is extracted from the following two-line orbital elements,

1 12089U 80098A   18200.30196398 -.00000219  00000-0  00000+0 0  9997
2 12089  14.8660 350.4234 0012705 256.7019 278.0278  0.98890627105136
Epoch (UTC): 19 July 2018 07:14:49
Eccentricity: 0.0012705
inclination: 14.8660°
perigee height: 36124 km
apogee height: 36232 km
right ascension of ascending node: 350.4234°
argument of perigee: 256.7019°
revolutions per day: 0.98890627
mean anomaly at epoch: 278.0278°
orbit number at epoch: 10513

The dashed part of the orbit path shows where the satellite is in the earth's shadow,  

DLR